FW1075 Weather Reports


Display with metric or nautical units.
time (UTC)temp
F
wind
direction
speed
MPH
gust
MPH
rain 1hr
in
rain 24hr
in
rain mn
in
humidity
%
barometer
mb
20260509052122 50 242 0.0 2.0 0.00 0.00 0.00 97 1011.5
20260509051142 50 131 0.0 1.0 0.00 0.00 0.00 98 1011.2
20260509050121 49 113 0.0 0.0 0.00 0.00 0.00 96 1011.1
20260509045142 49 338 0.0 0.0 0.00 0.00 0.00 95 1011.1
20260509044121 49 113 0.0 0.0 0.00 0.00 0.00 93 1011.2
20260509043143 50 23 0.0 0.0 0.00 0.00 0.00 93 1011.2
20260509042121 50 96 0.0 2.0 0.00 0.00 0.00 93 1011.2
20260509041121 51 92 0.0 1.0 0.00 0.00 0.00 91 1011.2
20260509040125 51 97 0.0 2.0 0.00 0.00 0.00 89 1011.2
20260509035125 52 113 0.0 0.0 0.00 0.00 0.00 87 1011.2
20260509034121 52 180 0.0 0.0 0.00 0.00 0.00 86 1011.5
20260509033121 53 23 0.0 0.0 0.00 0.00 0.00 86 1011.4
20260509032121 53 81 0.0 2.0 0.00 0.00 0.00 86 1011.6
20260509031121 53 95 0.0 2.0 0.00 0.00 0.00 86 1011.6
20260509030122 54 208 0.0 2.0 0.00 0.00 0.00 86 1011.7
20260509025126 54 180 0.0 2.0 0.00 0.00 0.00 85 1011.7
20260509024126 54 169 0.0 2.0 0.00 0.00 0.00 85 1011.7
20260509023126 54 176 1.0 3.0 0.00 0.00 0.00 84 1011.6
20260509022122 55 165 1.0 3.0 0.00 0.00 0.00 83 1011.7
20260509021123 55 172 1.0 3.0 0.00 0.00 0.00 82 1011.5
20260509020122 55 295 2.0 3.0 0.00 0.00 0.00 81 1011.4
20260509015122 55 286 2.0 3.0 0.00 0.00 0.00 81 1011.4
20260509014123 55 202 2.0 3.0 0.00 0.00 0.00 81 1011.2
20260509013123 55 255 1.0 3.0 0.00 0.00 0.00 81 1011.1
20260509012123 55 133 1.0 4.0 0.00 0.00 0.00 80 1010.9
20260509011121 55 168 1.0 4.0 0.00 0.00 0.00 80 1010.7
20260509010121 55 196 1.0 3.0 0.00 0.00 0.00 79 1010.4
20260509005121 55 136 2.0 5.0 0.00 0.00 0.00 78 1010.4
20260509004121 56 146 2.0 4.0 0.00 0.00 0.00 77 1010.4
20260509003121 56 149 1.0 3.0 0.00 0.00 0.00 72 1010.2
20260509002121 56 118 0.0 2.0 0.00 0.00 0.00 70 1010.2
20260509001121 56 87 0.0 2.0 0.00 0.00 0.00 69 1010.2
20260509000142 57 90 0.0 2.0 0.00 0.00 0.00 67 1010.1
20260508235121 57 63 0.0 3.0 0.00 0.00 0.00 65 1010.1
20260508234121 58 54 1.0 3.0 0.00 0.00 0.00 64 1009.8
20260508233121 59 83 2.0 4.0 0.00 0.00 0.00 62 1009.7
20260508232121 59 59 3.0 6.0 0.00 0.00 0.00 62 1009.7
20260508231123 60 55 2.0 4.0 0.00 0.00 0.00 60 1009.6
20260508230122 60 280 1.0 3.0 0.00 0.00 0.00 60 1009.5
20260508225122 60 75 2.0 3.0 0.00 0.00 0.00 60 1009.5
20260508224121 60 105 3.0 4.0 0.00 0.00 0.00 60 1009.6
20260508223124 61 352 3.0 4.0 0.00 0.00 0.00 59 1009.7
20260508222143 61 312 3.0 5.0 0.00 0.00 0.00 59 1009.5
20260508221122 62 307 4.0 6.0 0.00 0.00 0.00 57 1009.4
20260508220122 62 351 3.0 6.0 0.00 0.00 0.00 56 1009.6
20260508215123 62 333 3.0 7.0 0.00 0.00 0.00 57 1009.6
20260508214122 61 251 3.0 6.0 0.00 0.00 0.00 58 1009.7
20260508213122 62 333 4.0 6.0 0.00 0.00 0.00 55 1009.7
20260508212123 62 237 3.0 5.0 0.00 0.00 0.00 55 1009.7
20260508211124 63 338 3.0 6.0 0.00 0.00 0.00 54 1009.7
20260508210144 64 308 3.0 5.0 0.00 0.00 0.00 53 1009.7
20260508205122 61 180 3.0 5.0 0.00 0.00 0.00 57 1009.7
20260508204122 61 326 4.0 8.0 0.00 0.00 0.00 55 1009.7
20260508203122 61 329 5.0 8.0 0.00 0.00 0.00 55 1009.6
20260508202142 61 315 4.0 8.0 0.00 0.00 0.00 58 1009.8
20260508201121 60 293 6.0 10.0 0.00 0.00 0.00 58 1009.4
20260508200123 63 282 6.0 13.0 0.00 0.00 0.00 50 1009.2
20260508195124 65 283 4.0 8.0 0.00 0.00 0.00 44 1009.2
20260508194121 65 304 3.0 6.0 0.00 0.00 0.00 45 1009.2
20260508193121 64 273 3.0 6.0 0.00 0.00 0.00 46 1009.5
20260508192121 63 265 3.0 7.0 0.00 0.00 0.00 46 1009.6
20260508191121 63 306 3.0 9.0 0.00 0.00 0.00 45 1009.6
20260508190121 64 260 4.0 8.0 0.00 0.00 0.00 43 1009.6
20260508185121 65 292 4.0 8.0 0.00 0.00 0.00 42 1009.5
20260508184125 66 262 5.0 9.0 0.00 0.00 0.00 41 1009.5
20260508183145 66 268 6.0 12.0 0.00 0.00 0.00 42 1009.6
20260508182122 67 282 5.0 8.0 0.00 0.00 0.00 40 1009.6
20260508181143 70 280 5.0 10.0 0.00 0.00 0.00 39 1009.7
20260508180122 68 277 6.0 10.0 0.00 0.00 0.00 40 1009.7
20260508175123 70 268 5.0 10.0 0.00 0.00 0.00 38 1009.7
20260508174123 68 265 6.0 15.0 0.00 0.00 0.00 40 1009.7
20260508173146 68 239 6.0 13.0 0.00 0.00 0.00 39 1009.9
20260508172122 68 297 6.0 15.0 0.00 0.00 0.00 41 1009.7
20260508171126 67 263 5.0 17.0 0.00 0.00 0.00 42 1009.9
20260508171121 67 262 5.0 17.0 0.00 0.00 0.00 42 1009.9
20260508170122 67 268 5.0 13.0 0.00 0.00 0.00 40 1010.1
20260508165122 67 270 5.0 12.0 0.00 0.00 0.00 41 1010.1
20260508164144 65 267 6.0 11.0 0.00 0.00 0.00 42 1010.0
20260508163122 64 233 7.0 12.0 0.00 0.00 0.00 42 1010.1
20260508162121 65 290 5.0 11.0 0.00 0.00 0.00 42 1010.2
20260508161122 66 283 4.0 7.0 0.00 0.00 0.00 42 1010.2
20260508160122 65 296 6.0 13.0 0.00 0.00 0.00 42 1010.2
20260508155121 65 301 7.0 16.0 0.00 0.00 0.00 41 1010.2
20260508154121 67 306 4.0 10.0 0.00 0.00 0.00 40 1010.4
20260508153123 66 287 4.0 8.0 0.00 0.00 0.00 41 1010.4
20260508152121 66 310 4.0 8.0 0.00 0.00 0.00 43 1010.5
20260508151123 66 298 3.0 7.0 0.00 0.00 0.00 42 1010.6
20260508150121 64 317 6.0 12.0 0.00 0.00 0.00 44 1010.7
20260508145121 63 323 5.0 9.0 0.00 0.00 0.00 43 1010.7
20260508144123 64 274 5.0 7.0 0.00 0.00 0.00 42 1010.7
20260508143121 62 271 5.0 9.0 0.00 0.00 0.00 45 1010.9
20260508142122 62 305 4.0 8.0 0.00 0.00 0.00 46 1010.8
20260508141122 62 311 4.0 7.0 0.00 0.00 0.00 50 1011.0
20260508140143 61 327 5.0 10.0 0.00 0.00 0.00 49 1010.9
20260508135123 61 308 3.0 6.0 0.00 0.00 0.00 52 1010.9
20260508134122 60 286 4.0 8.0 0.00 0.00 0.00 54 1010.8
20260508133144 59 292 5.0 8.0 0.00 0.00 0.00 54 1010.8
20260508132123 59 334 4.0 7.0 0.00 0.00 0.00 57 1010.8
20260508131123 58 280 4.0 6.0 0.00 0.00 0.00 59 1011.0
20260508130121 58 297 4.0 10.0 0.00 0.00 0.00 59 1010.9
20260508125121 57 306 5.0 8.0 0.00 0.00 0.00 60 1010.9
20260508124121 57 304 5.0 9.0 0.00 0.00 0.00 64 1011.0
20260508123121 57 286 5.0 9.0 0.00 0.00 0.00 63 1011.2
20260508122121 57 316 4.0 8.0 0.00 0.00 0.00 66 1011.2
20260508121123 56 304 3.0 6.0 0.00 0.00 0.00 69 1011.1
20260508120143 55 305 4.0 7.0 0.00 0.00 0.00 70 1011.0
20260508115123 55 286 3.0 4.0 0.00 0.00 0.00 72 1011.0
20260508114121 54 325 3.0 7.0 0.00 0.00 0.00 72 1011.0
20260508113121 54 315 3.0 5.0 0.00 0.00 0.00 74 1010.8
20260508112122 53 318 4.0 6.0 0.00 0.00 0.00 77 1010.8
20260508111121 52 312 3.0 6.0 0.00 0.00 0.00 77 1010.6
20260508110121 51 322 2.0 4.0 0.00 0.00 0.00 80 1010.5
20260508105123 50 295 1.0 2.0 0.00 0.00 0.00 86 1010.5
20260508104123 48 270 0.0 1.0 0.00 0.00 0.00 90 1010.4
20260508103123 46 289 0.0 2.0 0.00 0.00 0.00 94 1010.2
20260508102121 46 253 0.0 2.0 0.00 0.00 0.00 93 1010.2
20260508101122 46 296 2.0 4.0 0.00 0.00 0.00 93 1010.1
20260508100122 47 305 2.0 5.0 0.00 0.00 0.00 91 1010.0
20260508095143 47 300 2.0 5.0 0.00 0.00 0.00 91 1010.0
20260508094122 48 326 2.0 3.0 0.00 0.00 0.00 89 1009.7
20260508093146 48 21 3.0 5.0 0.00 0.00 0.00 89 1009.7
20260508092124 48 330 3.0 5.0 0.00 0.00 0.00 89 1009.8
20260508091122 48 331 3.0 6.0 0.00 0.00 0.00 88 1009.7
20260508090121 48 313 4.0 5.0 0.00 0.00 0.00 88 1009.6
20260508085123 48 333 3.0 5.0 0.00 0.01 0.00 88 1009.6
20260508084121 47 332 3.0 6.0 0.00 0.01 0.00 87 1009.5
20260508083122 48 338 4.0 7.0 0.00 0.01 0.00 86 1009.4
20260508082146 48 337 3.0 6.0 0.00 0.01 0.00 85 1009.4
20260508081124 48 351 4.0 8.0 0.00 0.01 0.00 85 1009.1
20260508080142 48 18 4.0 8.0 0.00 0.01 0.00 82 1009.1
20260508075121 48 336 3.0 5.0 0.00 0.01 0.00 81 1009.1
20260508074123 48 327 3.0 7.0 0.00 0.01 0.00 80 1009.2
20260508073142 49 321 4.0 7.0 0.00 0.01 0.00 79 1009.2
20260508072121 49 347 4.0 9.0 0.00 0.01 0.00 77 1009.2
20260508071123 50 332 4.0 7.0 0.00 0.01 0.00 73 1009.2
20260508070146 50 11 4.0 7.0 0.00 0.02 0.00 72 1009.2
20260508065121 50 321 4.0 8.0 0.00 0.02 0.00 75 1009.2
20260508064121 50 2 3.0 7.0 0.00 0.05 0.00 84 1009.2
20260508063122 50 329 4.0 6.0 0.00 0.08 0.00 77 1009.4
20260508062143 49 310 3.0 6.0 0.00 0.11 0.00 74 1008.5
20260508061143 46 344 0.0 2.0 0.00 0.14 0.00 92 1007.9
20260508060122 46 74 1.0 2.0 0.00 0.15 0.00 96 1007.8
20260508055145 45 86 1.0 2.0 0.00 0.15 0.00 99 1007.8
20260508054126 45 93 1.0 3.0 0.00 0.15 0.00 99 1007.7
20260508053125 45 90 0.0 0.0 0.00 0.15 0.00 99 1007.5